コワルスキー彗星

P/2015 D5 ( Kowalski )

English version
Home page
Updated on March 3, 2018

---------------------------------------------------------------------

・ プロフィール

発見日 2015年2月27日
発見光度 18.8等
発見者 R. A. Kowalski (Mount Lemmon)

・ 写真集

・ 軌道要素

Epoch 2014 Apr. 13.0 TT = JDT 2456760.5
T 2014 Apr. 19.40300 TT                                 MPCW
q   4.5792103            (2000.0)            P               Q
n   0.03516399     Peri.   40.06371     -0.38399303     -0.85917097
a   9.2272138      Node    74.98245     +0.73187392     -0.50652981
e   0.5037277      Incl.   20.49662     +0.56294752     +0.07247619
P  28.0
From 105 observations 2015 Feb. 27-June 12, mean residual 0".4.

・ 光度変化

        m1 = 9.0 + 5 logΔ + 10.0 log r

---------------------------------------------------------------------

軌道要素はM.P.E.C. 2015-W63に掲載されたものです。
光度グラフはComet for Windowsで作成したものです。

---------------------------------------------------------------------

Copyright(C) Seiichi Yoshida (comet@aerith.net). All rights reserved.